Le Mars, IA

8:07 PM CST on November 16, 2019 (GMT -0600)
Le Mars Municipal

Weather History for KLRJ - September, 2019

Change the Weather History Date:

Saturday, September 28, 2019

  Actual Average Record
Temperature  
Mean Temperature 56 °F -  
Max Temperature 68 °F 72 °F 140 °F (1997)
Min Temperature 44 °F 45 °F 30 °F (2012)
Degree Days  
Heating Degree Days 9    
Growing Degree Days 6 (Base 50)    
Moisture  
Dew Point 49 °F    
Average Humidity 77    
Maximum Humidity 100    
Minimum Humidity 49    
Precipitation  
Precipitation 0.00 in - - ()
Sea Level Pressure  
Sea Level Pressure 30.06 in    
Wind  
Wind Speed 11 mph (NE)    
Max Wind Speed 18 mph    
Max Gust Speed 29 mph    
Visibility 10 miles    
Events Rain    
Averages and records for this station are not official NWS values.
T = Trace of Precipitation, MM = Missing Value Source: NWS Daily Summary

Daily Weather History Graph

Daily Weather History Graph

Search for Another Location

Airport or City:

Astronomy

Sep. 28, 2019 Rise Set
Actual Time 7:18 AM CDT 7:11 PM CDT
Civil Twilight 6:50 AM CDT 7:39 PM CDT
Nautical Twilight 6:17 AM CDT 8:12 PM CDT
Astronomical Twilight 5:43 AM CDT 8:45 PM CDT
Moon 6:54 AM CDT (9/28) 7:39 PM CDT (9/28)
Length of Visible Light 12h 49m
Length of Day
11h 53m
Waning Crescent, 0% of the Moon is Illuminated
Sep 28
Waning Crescent
Sep 28
New
Oct 5
First Quarter
Oct 13
Full
Oct 21
Last Quarter

Hourly Weather History & Observations

Time (CDT) Temp. Windchill Dew Point Humidity Pressure Visibility Wind Dir Wind Speed Gust Speed Precip Events Conditions
12:15 AM 51.8 °F - 46.4 °F 82% 29.99 in 10.0 mi NNE 15.0 mph 23.0 mph N/A   Mostly Cloudy
12:35 AM 51.8 °F - 46.4 °F 82% 29.99 in 10.0 mi NNE 11.5 mph 18.4 mph N/A   Mostly Cloudy
12:55 AM 51.8 °F - 46.4 °F 82% 30.01 in 10.0 mi NNE 12.7 mph 20.7 mph N/A   Mostly Cloudy
1:15 AM 51.8 °F - 46.4 °F 82% 30.02 in 10.0 mi NNE 11.5 mph - N/A   Mostly Cloudy
1:35 AM 50.0 °F - 46.4 °F 87% 30.03 in 10.0 mi NNE 9.2 mph - N/A   Light Drizzle
1:55 AM 50.0 °F - 48.2 °F 94% 30.03 in 8.0 mi NE 8.1 mph - N/A Rain Light Rain
2:15 AM 50.0 °F - 48.2 °F 94% 30.02 in 10.0 mi NNE 9.2 mph - N/A   Overcast
2:35 AM 50.0 °F - 48.2 °F 94% 30.03 in 10.0 mi NNE 5.8 mph 12.7 mph N/A   Mostly Cloudy
2:55 AM 50.0 °F - 48.2 °F 94% 30.02 in 10.0 mi NNE 10.4 mph - N/A   Scattered Clouds
3:15 AM 48.2 °F - 48.2 °F 100% 30.02 in 10.0 mi NNE 9.2 mph - N/A   Clear
3:35 AM 48.2 °F - 48.2 °F 100% 30.03 in 10.0 mi NNE 5.8 mph - N/A   Clear
3:55 AM 48.2 °F - 46.4 °F 93% 30.04 in 10.0 mi North 5.8 mph - N/A   Clear
4:15 AM 46.4 °F 42.9 °F 46.4 °F 100% 30.04 in 10.0 mi North 6.9 mph - N/A   Clear
4:35 AM 46.4 °F 45.2 °F 46.4 °F 100% 30.05 in 10.0 mi NNE 3.5 mph - N/A   Clear
4:55 AM 46.4 °F 44.3 °F 46.4 °F 100% 30.05 in 10.0 mi North 4.6 mph - N/A   Clear
5:35 AM 46.4 °F 44.3 °F 46.4 °F 100% 30.06 in 10.0 mi North 4.6 mph - N/A   Clear
5:55 AM 46.4 °F - 46.4 °F 100% 30.09 in 10.0 mi Calm Calm - N/A   Clear
6:15 AM 44.6 °F - 44.6 °F 100% 30.09 in 10.0 mi Calm Calm - N/A   Partly Cloudy
6:35 AM 44.6 °F 43.1 °F 44.6 °F 100% 30.10 in 10.0 mi NNW 3.5 mph - N/A   Partly Cloudy
6:55 AM 44.6 °F 42.2 °F 42.8 °F 93% 30.10 in 10.0 mi North 4.6 mph - N/A   Partly Cloudy
7:15 AM 44.6 °F 40.7 °F 42.8 °F 93% 30.09 in 10.0 mi NNE 6.9 mph - N/A   Scattered Clouds
7:35 AM 44.6 °F - 44.6 °F 100% 30.11 in 10.0 mi Calm Calm - N/A   Partly Cloudy
7:55 AM 44.6 °F 40.7 °F 44.6 °F 100% 30.11 in 10.0 mi North 6.9 mph - N/A   Clear
8:15 AM 46.4 °F 41.9 °F 44.6 °F 93% 30.11 in 10.0 mi NNE 9.2 mph - N/A   Clear
8:35 AM 46.4 °F 41.1 °F 46.4 °F 100% 30.12 in 10.0 mi North 11.5 mph - N/A   Clear
8:55 AM 48.2 °F - 48.2 °F 100% 30.11 in 10.0 mi NNE 9.2 mph 16.1 mph N/A   Clear
9:15 AM 48.2 °F - 48.2 °F 100% 30.11 in 10.0 mi NNE 13.8 mph - N/A   Clear
9:35 AM 50.0 °F - 50.0 °F 100% 30.13 in 10.0 mi NE 10.4 mph - N/A   Clear
9:55 AM 51.8 °F - 50.0 °F 94% 30.13 in 10.0 mi NNE 12.7 mph - N/A   Clear
10:15 AM 53.6 °F - 50.0 °F 88% 30.13 in 10.0 mi NE 12.7 mph 19.6 mph N/A   Clear
10:35 AM 55.4 °F - 50.0 °F 82% 30.13 in 10.0 mi NE 11.5 mph - N/A   Partly Cloudy
10:55 AM 55.4 °F - 50.0 °F 82% 30.13 in 10.0 mi NE 11.5 mph 18.4 mph N/A   Clear
11:15 AM 57.2 °F - 50.0 °F 77% 30.14 in 10.0 mi NE 12.7 mph - N/A   Clear
11:35 AM 59.0 °F - 51.8 °F 77% 30.15 in 10.0 mi NE 10.4 mph 17.3 mph N/A   Clear
11:55 AM 60.8 °F - 50.0 °F 68% 30.14 in 10.0 mi NE 15.0 mph 20.7 mph N/A   Partly Cloudy
12:35 PM 60.8 °F - 50.0 °F 68% 30.12 in 10.0 mi East 10.4 mph 21.9 mph N/A   Scattered Clouds
12:55 PM 62.6 °F - 50.0 °F 63% 30.12 in 10.0 mi ENE 11.5 mph 21.9 mph N/A   Clear
1:15 PM 64.4 °F - 50.0 °F 59% 30.11 in 10.0 mi East 13.8 mph 21.9 mph N/A   Partly Cloudy
1:35 PM 64.4 °F - 50.0 °F 59% 30.11 in 10.0 mi East 11.5 mph 20.7 mph N/A   Partly Cloudy
1:55 PM 64.4 °F - 50.0 °F 59% 30.10 in 10.0 mi ENE 12.7 mph - N/A   Mostly Cloudy
2:15 PM 64.4 °F - 50.0 °F 59% 30.09 in 10.0 mi East 13.8 mph - N/A   Partly Cloudy
2:35 PM 64.4 °F - 50.0 °F 59% 30.08 in 10.0 mi ENE 13.8 mph - N/A   Partly Cloudy
2:55 PM 66.2 °F - 50.0 °F 56% 30.08 in 10.0 mi East 13.8 mph 20.7 mph N/A   Partly Cloudy
3:15 PM 66.2 °F - 50.0 °F 56% 30.07 in 10.0 mi ENE 15.0 mph 23.0 mph N/A   Clear
3:35 PM 66.2 °F - 50.0 °F 56% 30.07 in 10.0 mi East 11.5 mph 23.0 mph N/A   Clear
3:55 PM 66.2 °F - 50.0 °F 56% 30.06 in 10.0 mi East 12.7 mph 21.9 mph N/A   Clear
4:15 PM 68.0 °F - 48.2 °F 49% 30.06 in 10.0 mi NE 15.0 mph - N/A   Clear
4:35 PM 68.0 °F - 50.0 °F 52% 30.06 in 10.0 mi ENE 13.8 mph 24.2 mph N/A   Clear
4:55 PM 66.2 °F - 50.0 °F 56% 30.05 in 10.0 mi ENE 16.1 mph - N/A   Clear
5:15 PM 66.2 °F - 50.0 °F 56% 30.04 in 10.0 mi ENE 18.4 mph 24.2 mph N/A   Partly Cloudy
5:35 PM 66.2 °F - 50.0 °F 56% 30.04 in 10.0 mi ENE 17.3 mph - N/A   Mostly Cloudy
5:55 PM 66.2 °F - 50.0 °F 56% 30.03 in 10.0 mi ENE 16.1 mph - N/A   Mostly Cloudy
6:15 PM 66.2 °F - 50.0 °F 56% 30.04 in 10.0 mi ENE 12.7 mph 18.4 mph N/A   Overcast
6:35 PM 66.2 °F - 50.0 °F 56% 30.04 in 10.0 mi ENE 10.4 mph - N/A   Overcast
6:55 PM 64.4 °F - 50.0 °F 59% 30.03 in 10.0 mi ENE 10.4 mph - N/A   Overcast
7:15 PM 64.4 °F - 50.0 °F 59% 29.99 in 10.0 mi ENE 17.3 mph - N/A   Mostly Cloudy
7:35 PM 64.4 °F - 50.0 °F 59% 29.98 in 10.0 mi ENE 16.1 mph - N/A   Overcast
7:55 PM 62.6 °F - 50.0 °F 63% 29.99 in 10.0 mi NE 15.0 mph - N/A   Mostly Cloudy
8:15 PM 62.6 °F - 50.0 °F 63% 30.02 in 10.0 mi ENE 9.2 mph - N/A   Overcast
8:35 PM 62.6 °F - 50.0 °F 63% 30.03 in 10.0 mi ENE 9.2 mph 16.1 mph N/A   Overcast
8:55 PM 62.6 °F - 50.0 °F 63% 30.04 in 10.0 mi ENE 10.4 mph 17.3 mph N/A   Overcast
9:15 PM 62.6 °F - 50.0 °F 63% 30.04 in 10.0 mi ENE 11.5 mph - N/A   Overcast
9:35 PM 62.6 °F - 51.8 °F 68% 30.04 in 10.0 mi ENE 11.5 mph - N/A   Overcast
9:55 PM 62.6 °F - 51.8 °F 68% 30.04 in 10.0 mi East 10.4 mph - N/A   Overcast
10:15 PM 62.6 °F - 51.8 °F 68% 30.03 in 10.0 mi East 9.2 mph - N/A   Overcast
10:35 PM 62.6 °F - 51.8 °F 68% 30.03 in 10.0 mi East 12.7 mph 23.0 mph N/A   Overcast
10:55 PM 62.6 °F - 53.6 °F 72% 30.04 in 10.0 mi East 9.2 mph 15.0 mph N/A   Overcast
11:15 PM 62.6 °F - 55.4 °F 77% 30.03 in 10.0 mi East 11.5 mph 17.3 mph N/A   Overcast
11:35 PM 60.8 °F - 57.2 °F 88% 30.03 in 10.0 mi East 15.0 mph - N/A   Overcast
11:55 PM 60.8 °F - 57.2 °F 88% 30.02 in 10.0 mi East 18.4 mph 28.8 mph N/A   Overcast